Retour au catalogue

STARLINK-6296

ActifCommunicationsVLEO
NORAD 56773·PAYLOAD·🇺🇸 United States

Lancé May 31, 2023 depuis Vandenberg Space Force Base

Loading…

Prochains Passages (prochaines 24 heures)

TLE

FraisSource: CelesTrak SupGP

Époque: Sep 15, 2026, 02:11 UTC

1 56773C 23078G   26258.09145833  .00005353  00000+0  44869-3 0  2581
2 56773  70.0021 187.0729 0003032 271.2836  56.1152 14.98323309    14

Suivez STARLINK-6296 en temps réel avec AllMySat

Download on the App Store